2006-01-01 01:00:00,-0.10
2006-01-01 02:00:00,-0.10
2006-01-01 03:00:00,-0.09
2006-01-01 04:00:00,-0.08
2006-01-01 05:00:00,-0.06
2006-01-01 06:00:00,-0.05
2006-01-01 07:00:00,-0.04
2006-01-01 08:00:00,-0.03
2006-01-01 09:00:00,-0.02
2006-01-01 10:00:00,0.21
2006-01-01 11:00:00,1.47
2006-01-01 12:00:00,2.54
2006-01-01 13:00:00,1.93
2006-01-01 14:00:00,0.54
2006-01-01 15:00:00,0.00
2006-01-01 16:00:00,0.00
2006-01-01 17:00:00,-0.01
2006-01-01 18:00:00,0.00
2006-01-01 19:00:00,-0.00
2006-01-01 20:00:00,0.00
2006-01-01 21:00:00,-0.01
2006-01-01 22:00:00,-0.03
2006-01-01 23:00:00,-0.05
2006-01-02 00:00:00,-0.03
2006-01-02 01:00:00,-0.03
2006-01-02 02:00:00,-0.04
2006-01-02 03:00:00,-0.04
2006-01-02 04:00:00,-0.04
2006-01-02 05:00:00,-0.04
2006-01-02 06:00:00,-0.03
2006-01-02 07:00:00,-0.02
2006-01-02 08:00:00,-0.03
2006-01-02 09:00:00,-0.05
2006-01-02 10:00:00,0.13
2006-01-02 11:00:00,2.77
2006-01-02 12:00:00,3.99
2006-01-02 13:00:00,1.76
2006-01-02 14:00:00,0.65
2006-01-02 15:00:00,0.02
2006-01-02 16:00:00,-0.04
2006-01-02 17:00:00,-0.05
2006-01-02 18:00:00,-0.05
2006-01-02 19:00:00,-0.05
2006-01-02 20:00:00,-0.06
2006-01-02 21:00:00,-0.07
2006-01-02 22:00:00,-0.06
2006-01-02 23:00:00,-0.07
2006-01-03 00:00:00,-0.09
2006-01-03 01:00:00,-0.07
2006-01-03 02:00:00,-0.07
2006-01-03 03:00:00,-0.06
2006-01-03 04:00:00,-0.07
2006-01-03 05:00:00,-0.08
2006-01-03 06:00:00,-0.07
2006-01-03 07:00:00,-0.08
2006-01-03 08:00:00,-0.07
2006-01-03 09:00:00,-0.06
2006-01-03 10:00:00,0.92
2006-01-03 11:00:00,3.88
2006-01-03 12:00:00,2.95
2006-01-03 13:00:00,2.27
2006-01-03 14:00:00,1.07
2006-01-03 15:00:00,-0.00
2006-01-03 16:00:00,-0.03
2006-01-03 17:00:00,-0.04
2006-01-03 18:00:00,-0.04
2006-01-03 19:00:00,-0.03
2006-01-03 20:00:00,-0.03
2006-01-03 21:00:00,-0.02
2006-01-03 22:00:00,-0.02
2006-01-03 23:00:00,-0.01
2006-01-04 00:00:00,-0.01
2006-01-04 01:00:00,0.00
2006-01-04 02:00:00,0.00
2006-01-04 03:00:00,0.01
2006-01-04 04:00:00,-0.01
2006-01-04 05:00:00,0.03
2006-01-04 06:00:00,0.01
2006-01-04 07:00:00,0.03
2006-01-04 08:00:00,0.02
2006-01-04 09:00:00,0.03
2006-01-04 10:00:00,0.30
2006-01-04 11:00:00,1.07
2006-01-04 12:00:00,1.74
2006-01-04 13:00:00,1.51
2006-01-04 14:00:00,0.62
2006-01-04 15:00:00,0.04
2006-01-04 16:00:00,0.03
2006-01-04 17:00:00,0.02
2006-01-04 18:00:00,0.04
2006-01-04 19:00:00,0.05
2006-01-04 20:00:00,0.04
2006-01-04 21:00:00,0.07
2006-01-04 22:00:00,0.07
2006-01-04 23:00:00,0.08
2006-01-05 00:00:00,0.10
2006-01-05 01:00:00,0.12
2006-01-05 02:00:00,0.18
2006-01-05 03:00:00,0.19
2006-01-05 04:00:00,0.20
2006-01-05 05:00:00,0.16
2006-01-05 06:00:00,0.17
2006-01-05 07:00:00,0.12
2006-01-05 08:00:00,0.10
2006-01-05 09:00:00,0.09
2006-01-05 10:00:00,0.74
2006-01-05 11:00:00,2.06
2006-01-05 12:00:00,3.22
2006-01-05 13:00:00,3.06
2006-01-05 14:00:00,3.07
2006-01-05 15:00:00,0.71
2006-01-05 16:00:00,0.09
2006-01-05 17:00:00,0.02
2006-01-05 18:00:00,0.06
2006-01-05 19:00:00,0.07
2006-01-05 20:00:00,0.07
2006-01-05 21:00:00,0.07
2006-01-05 22:00:00,0.09
2006-01-05 23:00:00,0.10
2006-01-06 00:00:00,0.08
2006-01-06 01:00:00,0.10
2006-01-06 02:00:00,0.11
2006-01-06 03:00:00,0.08
2006-01-06 04:00:00,0.06
2006-01-06 05:00:00,0.06
2006-01-06 06:00:00,0.05
2006-01-06 07:00:00,0.06
2006-01-06 08:00:00,0.06
2006-01-06 09:00:00,0.15
2006-01-06 10:00:00,2.42
2006-01-06 11:00:00,3.77
2006-01-06 12:00:00,6.91
2006-01-06 13:00:00,5.30
2006-01-06 14:00:00,3.26
2006-01-06 15:00:00,1.19
2006-01-06 16:00:00,0.14
2006-01-06 17:00:00,0.08
2006-01-06 18:00:00,0.07
2006-01-06 19:00:00,0.06
2006-01-06 20:00:00,0.05
2006-01-06 21:00:00,0.06
2006-01-06 22:00:00,0.03
2006-01-06 23:00:00,0.02
2006-01-07 00:00:00,0.02
2006-01-07 01:00:00,0.02
2006-01-07 02:00:00,0.01
2006-01-07 03:00:00,0.02
2006-01-07 04:00:00,0.01
2006-01-07 05:00:00,0.02
2006-01-07 06:00:00,0.03
2006-01-07 07:00:00,0.04
2006-01-07 08:00:00,0.05
2006-01-07 09:00:00,0.28
2006-01-07 10:00:00,2.10
2006-01-07 11:00:00,2.94
2006-01-07 12:00:00,5.58
2006-01-07 13:00:00,5.96
2006-01-07 14:00:00,2.90
2006-01-07 15:00:00,1.23
2006-01-07 16:00:00,0.05
2006-01-07 17:00:00,0.03
2006-01-07 18:00:00,0.02
2006-01-07 19:00:00,0.01
2006-01-07 20:00:00,0.01
2006-01-07 21:00:00,0.02
2006-01-07 22:00:00,0.02
2006-01-07 23:00:00,0.03
2006-01-08 00:00:00,0.03
2006-01-08 01:00:00,0.04
2006-01-08 02:00:00,0.02
2006-01-08 03:00:00,0.02
2006-01-08 04:00:00,0.02
2006-01-08 05:00:00,0.03
2006-01-08 06:00:00,0.04
2006-01-08 07:00:00,0.03
2006-01-08 08:00:00,0.03
2006-01-08 09:00:00,0.23
2006-01-08 10:00:00,2.55
2006-01-08 11:00:00,3.62
2006-01-08 12:00:00,5.55
2006-01-08 13:00:00,4.59
2006-01-08 14:00:00,2.22
2006-01-08 15:00:00,1.08
2006-01-08 16:00:00,0.09
2006-01-08 17:00:00,0.07
2006-01-08 18:00:00,0.06
2006-01-08 19:00:00,0.03
2006-01-08 20:00:00,0.04
2006-01-08 21:00:00,0.07
2006-01-08 22:00:00,0.05
2006-01-08 23:00:00,0.07
2006-01-09 00:00:00,0.05
2006-01-09 01:00:00,0.04
2006-01-09 02:00:00,0.04
2006-01-09 03:00:00,0.07
2006-01-09 04:00:00,0.04
2006-01-09 05:00:00,0.04
2006-01-09 06:00:00,0.05
2006-01-09 07:00:00,0.04
2006-01-09 08:00:00,0.06
2006-01-09 09:00:00,0.19
2006-01-09 10:00:00,2.36
2006-01-09 11:00:00,5.25
2006-01-09 12:00:00,7.25
2006-01-09 13:00:00,5.74
2006-01-09 14:00:00,3.80
2006-01-09 15:00:00,1.01
2006-01-09 16:00:00,0.00
2006-01-09 17:00:00,0.00
2006-01-09 18:00:00,0.00
2006-01-09 19:00:00,0.00
2006-01-09 20:00:00,0.00
2006-01-09 21:00:00,0.00
2006-01-09 22:00:00,0.00
2006-01-09 23:00:00,0.00
2006-01-10 00:00:00,0.00
2006-01-10 01:00:00,0.04
2006-01-10 02:00:00,0.03
2006-01-10 03:00:00,0.03
2006-01-10 04:00:00,0.01
2006-01-10 05:00:00,0.01
2006-01-10 06:00:00,0.01
2006-01-10 07:00:00,0.01
2006-01-10 08:00:00,0.03
2006-01-10 09:00:00,0.09
2006-01-10 10:00:00,0.60
2006-01-10 11:00:00,1.72
2006-01-10 12:00:00,3.05
2006-01-10 13:00:00,3.81
2006-01-10 14:00:00,1.76
2006-01-10 15:00:00,0.39
2006-01-10 16:00:00,0.04
2006-01-10 17:00:00,0.03
2006-01-10 18:00:00,0.03
2006-01-10 19:00:00,0.05
2006-01-10 20:00:00,0.06
2006-01-10 21:00:00,0.05
2006-01-10 22:00:00,0.04
2006-01-10 23:00:00,0.04
2006-01-11 00:00:00,0.05
2006-01-11 01:00:00,0.04
2006-01-11 02:00:00,0.05
2006-01-11 03:00:00,0.03
2006-01-11 04:00:00,0.04
2006-01-11 05:00:00,0.04
2006-01-11 06:00:00,0.03
2006-01-11 07:00:00,0.02
2006-01-11 08:00:00,0.01
2006-01-11 09:00:00,0.00
2006-01-11 10:00:00,0.25
2006-01-11 11:00:00,1.18
2006-01-11 12:00:00,1.51
2006-01-11 13:00:00,1.74
2006-01-11 14:00:00,0.92
2006-01-11 15:00:00,0.29
2006-01-11 16:00:00,0.07
2006-01-11 17:00:00,0.04
2006-01-11 18:00:00,0.04
2006-01-11 19:00:00,0.02
2006-01-11 20:00:00,0.03
2006-01-11 21:00:00,0.02
2006-01-11 22:00:00,0.01
2006-01-11 23:00:00,0.04
2006-01-12 00:00:00,0.05
2006-01-12 01:00:00,0.07
2006-01-12 02:00:00,0.08
2006-01-12 03:00:00,0.08
2006-01-12 04:00:00,0.10
2006-01-12 05:00:00,0.09
2006-01-12 06:00:00,0.09
2006-01-12 07:00:00,0.13
2006-01-12 08:00:00,0.13
2006-01-12 09:00:00,0.15
2006-01-12 10:00:00,0.54
2006-01-12 11:00:00,2.06
2006-01-12 12:00:00,7.71
2006-01-12 13:00:00,4.53
2006-01-12 14:00:00,1.81
2006-01-12 15:00:00,0.33
2006-01-12 16:00:00,0.13
2006-01-12 17:00:00,0.12
2006-01-12 18:00:00,0.11
2006-01-12 19:00:00,0.07
2006-01-12 20:00:00,0.05
2006-01-12 21:00:00,0.02
2006-01-12 22:00:00,0.04
2006-01-12 23:00:00,0.03
2006-01-13 00:00:00,0.05
2006-01-13 01:00:00,0.05
2006-01-13 02:00:00,0.07
2006-01-13 03:00:00,0.09
2006-01-13 04:00:00,0.07
2006-01-13 05:00:00,0.07
2006-01-13 06:00:00,0.10
2006-01-13 07:00:00,0.13
2006-01-13 08:00:00,0.11
2006-01-13 09:00:00,0.13
2006-01-13 10:00:00,0.51
2006-01-13 11:00:00,1.81
2006-01-13 12:00:00,3.56
2006-01-13 13:00:00,3.86
2006-01-13 14:00:00,1.72
2006-01-13 15:00:00,0.34
2006-01-13 16:00:00,0.06
2006-01-13 17:00:00,0.08
2006-01-13 18:00:00,0.05
2006-01-13 19:00:00,0.08
2006-01-13 20:00:00,0.06
2006-01-13 21:00:00,0.04
2006-01-13 22:00:00,0.05
2006-01-13 23:00:00,0.03
2006-01-14 00:00:00,0.02
2006-01-14 01:00:00,0.02
2006-01-14 02:00:00,0.02
2006-01-14 03:00:00,0.05
2006-01-14 04:00:00,0.06
2006-01-14 05:00:00,0.04
2006-01-14 06:00:00,0.05
2006-01-14 07:00:00,0.03
2006-01-14 08:00:00,0.05
2006-01-14 09:00:00,0.09
2006-01-14 10:00:00,0.71
2006-01-14 11:00:00,2.76
2006-01-14 12:00:00,3.88
2006-01-14 13:00:00,2.85
2006-01-14 14:00:00,1.55
2006-01-14 15:00:00,0.37
2006-01-14 16:00:00,0.09
2006-01-14 17:00:00,0.14
2006-01-14 18:00:00,0.12
2006-01-14 19:00:00,0.10
2006-01-14 20:00:00,0.11
2006-01-14 21:00:00,0.10
2006-01-14 22:00:00,0.11
2006-01-14 23:00:00,0.08
2006-01-15 00:00:00,0.06
2006-01-15 01:00:00,0.06
2006-01-15 02:00:00,0.05
2006-01-15 03:00:00,0.04
2006-01-15 04:00:00,0.01
2006-01-15 05:00:00,0.00
2006-01-15 06:00:00,0.00
2006-01-15 07:00:00,0.00
2006-01-15 08:00:00,0.00
2006-01-15 09:00:00,0.01
2006-01-15 10:00:00,1.43
2006-01-15 11:00:00,5.55
2006-01-15 12:00:00,7.71
2006-01-15 13:00:00,6.23
2006-01-15 14:00:00,3.18
2006-01-15 15:00:00,0.45
2006-01-15 16:00:00,0.00
2006-01-15 17:00:00,0.00
2006-01-15 18:00:00,0.00
2006-01-15 19:00:00,0.00
2006-01-15 20:00:00,0.00
2006-01-15 21:00:00,0.00
2006-01-15 22:00:00,0.06
2006-01-15 23:00:00,0.12
2006-01-16 00:00:00,0.11
2006-01-16 01:00:00,0.12
2006-01-16 02:00:00,0.09
2006-01-16 03:00:00,0.01
2006-01-16 04:00:00,0.01
2006-01-16 05:00:00,0.00
2006-01-16 06:00:00,0.00
2006-01-16 07:00:00,0.01
2006-01-16 08:00:00,0.02
2006-01-16 09:00:00,0.08
2006-01-16 10:00:00,1.37
2006-01-16 11:00:00,4.25
2006-01-16 12:00:00,5.71
2006-01-16 13:00:00,4.88
2006-01-16 14:00:00,2.03
2006-01-16 15:00:00,0.30
2006-01-16 16:00:00,0.10
2006-01-16 17:00:00,0.09
2006-01-16 18:00:00,0.10
2006-01-16 19:00:00,0.11
2006-01-16 20:00:00,0.10
2006-01-16 21:00:00,0.08
2006-01-16 22:00:00,0.11
2006-01-16 23:00:00,0.07
2006-01-17 00:00:00,0.06
2006-01-17 01:00:00,0.09
2006-01-17 02:00:00,0.08
2006-01-17 03:00:00,0.07
2006-01-17 04:00:00,0.09
2006-01-17 05:00:00,0.08
2006-01-17 06:00:00,0.10
2006-01-17 07:00:00,0.10
2006-01-17 08:00:00,0.11
2006-01-17 09:00:00,0.12
2006-01-17 10:00:00,0.74
2006-01-17 11:00:00,3.01
2006-01-17 12:00:00,6.23
2006-01-17 13:00:00,5.54
2006-01-17 14:00:00,2.73
2006-01-17 15:00:00,0.35
2006-01-17 16:00:00,0.08
2006-01-17 17:00:00,0.07
2006-01-17 18:00:00,0.06
2006-01-17 19:00:00,0.05
2006-01-17 20:00:00,0.03
2006-01-17 21:00:00,0.02
2006-01-17 22:00:00,0.01
2006-01-17 23:00:00,-0.00
2006-01-18 00:00:00,-0.01
2006-01-18 01:00:00,-0.01
2006-01-18 02:00:00,0.01
2006-01-18 03:00:00,-0.03
2006-01-18 04:00:00,-0.05
2006-01-18 05:00:00,-0.05
2006-01-18 06:00:00,-0.04
2006-01-18 07:00:00,-0.06
2006-01-18 08:00:00,-0.05
2006-01-18 09:00:00,-0.01
2006-01-18 10:00:00,1.36
2006-01-18 11:00:00,5.76
2006-01-18 12:00:00,6.91
2006-01-18 13:00:00,8.30
2006-01-18 14:00:00,3.44
2006-01-18 15:00:00,0.43
2006-01-18 16:00:00,-0.13
2006-01-18 17:00:00,-0.24
2006-01-18 18:00:00,-0.15
2006-01-18 19:00:00,-0.17
2006-01-18 20:00:00,-0.21
2006-01-18 21:00:00,-0.29
2006-01-18 22:00:00,-0.26
2006-01-18 23:00:00,-0.26
2006-01-19 00:00:00,-0.28
2006-01-19 01:00:00,-0.29
2006-01-19 02:00:00,-0.34
2006-01-19 03:00:00,-0.30
2006-01-19 04:00:00,-0.28
2006-01-19 05:00:00,-0.30
2006-01-19 06:00:00,-0.25
2006-01-19 07:00:00,-0.30
2006-01-19 08:00:00,-0.32
2006-01-19 09:00:00,-0.27
2006-01-19 10:00:00,1.61
2006-01-19 11:00:00,7.03
2006-01-19 12:00:00,9.08
2006-01-19 13:00:00,7.08
2006-01-19 14:00:00,2.87
2006-01-19 15:00:00,0.31
2006-01-19 16:00:00,-0.33
2006-01-19 17:00:00,-0.33
2006-01-19 18:00:00,-0.32
2006-01-19 19:00:00,-0.30
2006-01-19 20:00:00,-0.30
2006-01-19 21:00:00,-0.31
2006-01-19 22:00:00,-0.31
2006-01-19 23:00:00,-0.27
2006-01-20 00:00:00,-0.28
2006-01-20 01:00:00,-0.29
2006-01-20 02:00:00,-0.29
2006-01-20 03:00:00,-0.26
2006-01-20 04:00:00,-0.27
2006-01-20 05:00:00,-0.28
2006-01-20 06:00:00,-0.25
2006-01-20 07:00:00,-0.27
2006-01-20 08:00:00,-0.26
2006-01-20 09:00:00,-0.13
2006-01-20 10:00:00,1.95
2006-01-20 11:00:00,4.71
2006-01-20 12:00:00,8.46
2006-01-20 13:00:00,7.06
2006-01-20 14:00:00,3.06
2006-01-20 15:00:00,0.22
2006-01-20 16:00:00,-0.21
2006-01-20 17:00:00,-0.23
2006-01-20 18:00:00,-0.23
2006-01-20 19:00:00,-0.22
2006-01-20 20:00:00,-0.19
2006-01-20 21:00:00,-0.20
2006-01-20 22:00:00,-0.21
2006-01-20 23:00:00,-0.23
2006-01-21 00:00:00,-0.23
2006-01-21 01:00:00,-0.24
2006-01-21 02:00:00,-0.22
2006-01-21 03:00:00,-0.20
2006-01-21 04:00:00,-0.21
2006-01-21 05:00:00,-0.22
2006-01-21 06:00:00,-0.25
2006-01-21 07:00:00,-0.22
2006-01-21 08:00:00,-0.23
2006-01-21 09:00:00,-0.17
2006-01-21 10:00:00,0.67
2006-01-21 11:00:00,4.17
2006-01-21 12:00:00,6.66
2006-01-21 13:00:00,7.22
2006-01-21 14:00:00,3.32
2006-01-21 15:00:00,0.47
2006-01-21 16:00:00,-0.16
2006-01-21 17:00:00,-0.21
2006-01-21 18:00:00,-0.23
2006-01-21 19:00:00,-0.26
2006-01-21 20:00:00,-0.26
2006-01-21 21:00:00,-0.27
2006-01-21 22:00:00,-0.26
2006-01-21 23:00:00,-0.27
2006-01-22 00:00:00,-0.25
2006-01-22 01:00:00,-0.23
2006-01-22 02:00:00,-0.19
2006-01-22 03:00:00,-0.17
2006-01-22 04:00:00,-0.18
2006-01-22 05:00:00,-0.19
2006-01-22 06:00:00,-0.16
2006-01-22 07:00:00,-0.13
2006-01-22 08:00:00,-0.10
2006-01-22 09:00:00,-0.07
2006-01-22 10:00:00,0.33
2006-01-22 11:00:00,2.17
2006-01-22 12:00:00,3.79
2006-01-22 13:00:00,3.59
2006-01-22 14:00:00,2.87
2006-01-22 15:00:00,0.66
2006-01-22 16:00:00,0.14
2006-01-22 17:00:00,0.10
2006-01-22 18:00:00,0.07
2006-01-22 19:00:00,0.05
2006-01-22 20:00:00,0.04
2006-01-22 21:00:00,0.05
2006-01-22 22:00:00,0.04
2006-01-22 23:00:00,0.05
2006-01-23 00:00:00,0.07
2006-01-23 01:00:00,0.06
2006-01-23 02:00:00,0.06
2006-01-23 03:00:00,0.10
2006-01-23 04:00:00,0.07
2006-01-23 05:00:00,0.07
2006-01-23 06:00:00,0.06
2006-01-23 07:00:00,0.07
2006-01-23 08:00:00,0.07
2006-01-23 09:00:00,0.13
2006-01-23 10:00:00,1.39
2006-01-23 11:00:00,4.79
2006-01-23 12:00:00,13.07
2006-01-23 13:00:00,23.31
2006-01-23 14:00:00,4.33
2006-01-23 15:00:00,1.03
2006-01-23 16:00:00,0.09
2006-01-23 17:00:00,0.09
2006-01-23 18:00:00,0.05
2006-01-23 19:00:00,0.04
2006-01-23 20:00:00,0.04
2006-01-23 21:00:00,0.04
2006-01-23 22:00:00,0.03
2006-01-23 23:00:00,0.05
2006-01-24 00:00:00,0.07
2006-01-24 01:00:00,0.06
2006-01-24 02:00:00,0.05
2006-01-24 03:00:00,0.00
2006-01-24 04:00:00,0.10
2006-01-24 05:00:00,0.19
2006-01-24 06:00:00,0.19
2006-01-24 07:00:00,0.17
2006-01-24 08:00:00,0.18
2006-01-24 09:00:00,0.26
2006-01-24 10:00:00,1.02
2006-01-24 11:00:00,3.31
2006-01-24 12:00:00,5.39
2006-01-24 13:00:00,5.31
2006-01-24 14:00:00,3.29
2006-01-24 15:00:00,0.85
2006-01-24 16:00:00,0.22
2006-01-24 17:00:00,0.13
2006-01-24 18:00:00,0.08
2006-01-24 19:00:00,0.02
2006-01-24 20:00:00,0.01
2006-01-24 21:00:00,0.03
2006-01-24 22:00:00,0.02
2006-01-24 23:00:00,0.01
2006-01-25 00:00:00,0.03
2006-01-25 01:00:00,0.01
2006-01-25 02:00:00,0.00
2006-01-25 03:00:00,0.00
2006-01-25 04:00:00,0.00
2006-01-25 05:00:00,0.00
2006-01-25 06:00:00,0.00
2006-01-25 07:00:00,0.00
2006-01-25 08:00:00,0.00
2006-01-25 09:00:00,0.23
2006-01-25 10:00:00,7.72
2006-01-25 11:00:00,33.02
2006-01-25 12:00:00,15.61
2006-01-25 13:00:00,22.99
2006-01-25 14:00:00,9.26
2006-01-25 15:00:00,1.85
2006-01-25 16:00:00,0.11
2006-01-25 17:00:00,0.03
2006-01-25 18:00:00,0.04
2006-01-25 19:00:00,0.01
2006-01-25 20:00:00,0.02
2006-01-25 21:00:00,0.04
2006-01-25 22:00:00,0.04
2006-01-25 23:00:00,0.04
2006-01-26 00:00:00,0.05
2006-01-26 01:00:00,0.08
2006-01-26 02:00:00,0.09
2006-01-26 03:00:00,0.11
2006-01-26 04:00:00,0.11
2006-01-26 05:00:00,0.13
2006-01-26 06:00:00,0.14
2006-01-26 07:00:00,0.14
2006-01-26 08:00:00,0.13
2006-01-26 09:00:00,0.31
2006-01-26 10:00:00,1.85
2006-01-26 11:00:00,5.15
2006-01-26 12:00:00,9.82
2006-01-26 13:00:00,6.11
2006-01-26 14:00:00,4.35
2006-01-26 15:00:00,1.75
2006-01-26 16:00:00,0.27
2006-01-26 17:00:00,0.15
2006-01-26 18:00:00,0.14
2006-01-26 19:00:00,0.14
2006-01-26 20:00:00,0.12
2006-01-26 21:00:00,0.11
2006-01-26 22:00:00,0.09
2006-01-26 23:00:00,0.09
2006-01-27 00:00:00,0.07
2006-01-27 01:00:00,0.05
2006-01-27 02:00:00,0.07
2006-01-27 03:00:00,0.06
2006-01-27 04:00:00,0.06
2006-01-27 05:00:00,0.05
2006-01-27 06:00:00,0.03
2006-01-27 07:00:00,0.04
2006-01-27 08:00:00,0.03
2006-01-27 09:00:00,1.00
2006-01-27 10:00:00,4.68
2006-01-27 11:00:00,11.62
2006-01-27 12:00:00,15.57
2006-01-27 13:00:00,15.48
2006-01-27 14:00:00,8.93
2006-01-27 15:00:00,2.17
2006-01-27 16:00:00,0.19
2006-01-27 17:00:00,0.04
2006-01-27 18:00:00,0.04
2006-01-27 19:00:00,0.01
2006-01-27 20:00:00,0.03
2006-01-27 21:00:00,0.06
2006-01-27 22:00:00,0.06
2006-01-27 23:00:00,0.04
2006-01-28 00:00:00,0.04
2006-01-28 01:00:00,0.04
2006-01-28 02:00:00,0.07
2006-01-28 03:00:00,0.05
2006-01-28 04:00:00,0.07
2006-01-28 05:00:00,0.09
2006-01-28 06:00:00,0.08
2006-01-28 07:00:00,0.06
2006-01-28 08:00:00,0.07
2006-01-28 09:00:00,0.41
2006-01-28 10:00:00,3.57
2006-01-28 11:00:00,10.96
2006-01-28 12:00:00,17.41
2006-01-28 13:00:00,13.43
2006-01-28 14:00:00,7.55
2006-01-28 15:00:00,1.88
2006-01-28 16:00:00,0.23
2006-01-28 17:00:00,0.07
2006-01-28 18:00:00,0.06
2006-01-28 19:00:00,0.05
2006-01-28 20:00:00,0.03
2006-01-28 21:00:00,0.06
2006-01-28 22:00:00,0.09
2006-01-28 23:00:00,0.08
2006-01-29 00:00:00,0.06
2006-01-29 01:00:00,0.07
2006-01-29 02:00:00,0.05
2006-01-29 03:00:00,0.06
2006-01-29 04:00:00,0.07
2006-01-29 05:00:00,0.07
2006-01-29 06:00:00,0.07
2006-01-29 07:00:00,0.07
2006-01-29 08:00:00,0.09
2006-01-29 09:00:00,0.44
2006-01-29 10:00:00,6.16
2006-01-29 11:00:00,15.81
2006-01-29 12:00:00,22.05
2006-01-29 13:00:00,21.89
2006-01-29 14:00:00,7.75
2006-01-29 15:00:00,2.89
2006-01-29 16:00:00,0.34
2006-01-29 17:00:00,0.07
2006-01-29 18:00:00,0.06
2006-01-29 19:00:00,0.06
2006-01-29 20:00:00,0.09
2006-01-29 21:00:00,0.05
2006-01-29 22:00:00,0.06
2006-01-29 23:00:00,0.05
2006-01-30 00:00:00,0.04
2006-01-30 01:00:00,0.04
2006-01-30 02:00:00,0.05
2006-01-30 03:00:00,0.04
2006-01-30 04:00:00,0.05
2006-01-30 05:00:00,0.04
2006-01-30 06:00:00,0.04
2006-01-30 07:00:00,0.04
2006-01-30 08:00:00,0.05
2006-01-30 09:00:00,1.54
2006-01-30 10:00:00,5.05
2006-01-30 11:00:00,14.92
2006-01-30 12:00:00,20.99
2006-01-30 13:00:00,17.96
2006-01-30 14:00:00,13.10
2006-01-30 15:00:00,3.93
2006-01-30 16:00:00,0.25
2006-01-30 17:00:00,0.00
2006-01-30 18:00:00,0.00
2006-01-30 19:00:00,0.00
2006-01-30 20:00:00,0.00
2006-01-30 21:00:00,0.00
2006-01-30 22:00:00,0.00
2006-01-30 23:00:00,0.00
2006-01-31 00:00:00,0.00
2006-01-31 01:00:00,0.00
2006-01-31 02:00:00,0.00
2006-01-31 03:00:00,0.00
2006-01-31 04:00:00,0.00
2006-01-31 05:00:00,0.00
2006-01-31 06:00:00,0.00
2006-01-31 07:00:00,0.00
2006-01-31 08:00:00,0.00
2006-01-31 09:00:00,0.50
2006-01-31 10:00:00,6.83
2006-01-31 11:00:00,8.40
2006-01-31 12:00:00,14.54
2006-01-31 13:00:00,29.72
2006-01-31 14:00:00,8.37
2006-01-31 15:00:00,4.91
2006-01-31 16:00:00,0.40
2006-01-31 17:00:00,0.05
2006-01-31 18:00:00,0.06
2006-01-31 19:00:00,0.06
2006-01-31 20:00:00,0.05
2006-01-31 21:00:00,0.06
2006-01-31 22:00:00,0.04
2006-01-31 23:00:00,0.07
2006-02-01 00:00:00,0.05
2006-02-01 01:00:00,0.05
2006-02-01 02:00:00,0.03
2006-02-01 03:00:00,0.03
2006-02-01 04:00:00,0.02
2006-02-01 05:00:00,0.03
2006-02-01 06:00:00,0.02
2006-02-01 07:00:00,0.02
2006-02-01 08:00:00,0.07
2006-02-01 09:00:00,0.87
2006-02-01 10:00:00,6.98
2006-02-01 11:00:00,16.89
2006-02-01 12:00:00,18.40
2006-02-01 13:00:00,14.81
2006-02-01 14:00:00,19.47
2006-02-01 15:00:00,7.17
2006-02-01 16:00:00,0.69
2006-02-01 17:00:00,0.04
2006-02-01 18:00:00,0.07
2006-02-01 19:00:00,0.06
2006-02-01 20:00:00,0.02
2006-02-01 21:00:00,0.03
2006-02-01 22:00:00,0.02
2006-02-01 23:00:00,0.02
2006-02-02 00:00:00,0.02
2006-02-02 01:00:00,0.01
2006-02-02 02:00:00,0.02
2006-02-02 03:00:00,0.03
2006-02-02 04:00:00,0.03
2006-02-02 05:00:00,0.02
2006-02-02 06:00:00,0.03
2006-02-02 07:00:00,0.02
2006-02-02 08:00:00,0.02
2006-02-02 09:00:00,1.46
2006-02-02 10:00:00,8.54
2006-02-02 11:00:00,38.78
2006-02-02 12:00:00,55.94
2006-02-02 13:00:00,22.70
2006-02-02 14:00:00,18.78
2006-02-02 15:00:00,4.86
2006-02-02 16:00:00,0.93
2006-02-02 17:00:00,0.01
2006-02-02 18:00:00,0.01
2006-02-02 19:00:00,0.02
2006-02-02 20:00:00,0.01
2006-02-02 21:00:00,-0.00
2006-02-02 22:00:00,-0.01
2006-02-02 23:00:00,-0.04
2006-02-03 00:00:00,-0.08
2006-02-03 01:00:00,-0.13
2006-02-03 02:00:00,-0.16
2006-02-03 03:00:00,-0.18
2006-02-03 04:00:00,-0.21
2006-02-03 05:00:00,-0.22
2006-02-03 06:00:00,-0.20
2006-02-03 07:00:00,-0.20
2006-02-03 08:00:00,-0.18
2006-02-03 09:00:00,1.17
2006-02-03 10:00:00,8.70
2006-02-03 11:00:00,23.91
2006-02-03 12:00:00,27.00
2006-02-03 13:00:00,22.17
2006-02-03 14:00:00,14.08
2006-02-03 15:00:00,11.37
2006-02-03 16:00:00,1.27
2006-02-03 17:00:00,-0.14
2006-02-03 18:00:00,-0.13
2006-02-03 19:00:00,-0.14
2006-02-03 20:00:00,-0.11
2006-02-03 21:00:00,-0.09
2006-02-03 22:00:00,-0.07
2006-02-03 23:00:00,-0.03
2006-02-04 00:00:00,-0.02
2006-02-04 01:00:00,-0.02
2006-02-04 02:00:00,-0.03
2006-02-04 03:00:00,-0.03
2006-02-04 04:00:00,-0.01
2006-02-04 05:00:00,-0.02
2006-02-04 06:00:00,-0.01
2006-02-04 07:00:00,-0.01
2006-02-04 08:00:00,-0.00
2006-02-04 09:00:00,1.60
2006-02-04 10:00:00,14.13
2006-02-04 11:00:00,42.14
2006-02-04 12:00:00,40.06
2006-02-04 13:00:00,16.51
2006-02-04 14:00:00,13.32
2006-02-04 15:00:00,6.57
2006-02-04 16:00:00,1.17
2006-02-04 17:00:00,0.00
2006-02-04 18:00:00,-0.00
2006-02-04 19:00:00,0.00
2006-02-04 20:00:00,0.00
2006-02-04 21:00:00,0.00
2006-02-04 22:00:00,-0.00
2006-02-04 23:00:00,-0.00
2006-02-05 00:00:00,0.00
2006-02-05 01:00:00,0.00
2006-02-05 02:00:00,0.00
2006-02-05 03:00:00,0.00
2006-02-05 04:00:00,0.00
2006-02-05 05:00:00,0.00
2006-02-05 06:00:00,-0.00
2006-02-05 07:00:00,0.00
2006-02-05 08:00:00,0.00
2006-02-05 09:00:00,2.03
2006-02-05 10:00:00,17.13
2006-02-05 11:00:00,48.03
2006-02-05 12:00:00,48.25
2006-02-05 13:00:00,14.70
2006-02-05 14:00:00,11.97
2006-02-05 15:00:00,5.72
2006-02-05 16:00:00,1.04
2006-02-05 17:00:00,0.00
2006-02-05 18:00:00,0.00
2006-02-05 19:00:00,0.00
2006-02-05 20:00:00,0.00
2006-02-05 21:00:00,0.00
2006-02-05 22:00:00,0.00
2006-02-05 23:00:00,0.00
2006-02-06 00:00:00,0.00
2006-02-06 01:00:00,0.00
2006-02-06 02:00:00,0.00
2006-02-06 03:00:00,0.00
2006-02-06 04:00:00,0.00
2006-02-06 05:00:00,0.00
2006-02-06 06:00:00,0.00
2006-02-06 07:00:00,0.00
2006-02-06 08:00:00,0.00
2006-02-06 09:00:00,1.31
2006-02-06 10:00:00,9.98
2006-02-06 11:00:00,19.40
2006-02-06 12:00:00,28.86
2006-02-06 13:00:00,21.05
2006-02-06 14:00:00,9.00
2006-02-06 15:00:00,3.51
2006-02-06 16:00:00,0.84
2006-02-06 17:00:00,0.00
2006-02-06 18:00:00,-0.02
2006-02-06 19:00:00,-0.04
2006-02-06 20:00:00,-0.04
2006-02-06 21:00:00,-0.05
2006-02-06 22:00:00,-0.05
2006-02-06 23:00:00,-0.07
2006-02-07 00:00:00,-0.05
2006-02-07 01:00:00,-0.01
2006-02-07 02:00:00,-0.02
2006-02-07 03:00:00,0.01
2006-02-07 04:00:00,-0.01
2006-02-07 05:00:00,0.01
2006-02-07 06:00:00,0.05
2006-02-07 07:00:00,0.06
2006-02-07 08:00:00,0.11
2006-02-07 09:00:00,1.52
2006-02-07 10:00:00,9.02
2006-02-07 11:00:00,16.66
2006-02-07 12:00:00,30.56
2006-02-07 13:00:00,50.17
2006-02-07 14:00:00,32.22
2006-02-07 15:00:00,17.11
2006-02-07 16:00:00,3.55
2006-02-07 17:00:00,0.07
2006-02-07 18:00:00,0.03
2006-02-07 19:00:00,0.03
2006-02-07 20:00:00,0.06
2006-02-07 21:00:00,0.04
2006-02-07 22:00:00,0.03
2006-02-07 23:00:00,0.02
2006-02-08 00:00:00,0.03
2006-02-08 01:00:00,0.02
2006-02-08 02:00:00,0.04
2006-02-08 03:00:00,0.04
2006-02-08 04:00:00,0.03
2006-02-08 05:00:00,0.04
2006-02-08 06:00:00,0.04
2006-02-08 07:00:00,0.05
2006-02-08 08:00:00,0.17
2006-02-08 09:00:00,3.85
2006-02-08 10:00:00,17.58
2006-02-08 11:00:00,57.61
2006-02-08 12:00:00,60.50
2006-02-08 13:00:00,24.21
2006-02-08 14:00:00,21.75
2006-02-08 15:00:00,12.47
2006-02-08 16:00:00,2.21
2006-02-08 17:00:00,0.06
2006-02-08 18:00:00,0.01
2006-02-08 19:00:00,0.02
2006-02-08 20:00:00,0.01
2006-02-08 21:00:00,0.00
2006-02-08 22:00:00,0.01
2006-02-08 23:00:00,0.01
2006-02-09 00:00:00,0.00
2006-02-09 01:00:00,0.02
2006-02-09 02:00:00,0.06
2006-02-09 03:00:00,0.08
2006-02-09 04:00:00,0.07
2006-02-09 05:00:00,0.08
2006-02-09 06:00:00,0.05
2006-02-09 07:00:00,0.05
2006-02-09 08:00:00,0.12
2006-02-09 09:00:00,3.20
2006-02-09 10:00:00,16.43
2006-02-09 11:00:00,38.43
2006-02-09 12:00:00,39.07
2006-02-09 13:00:00,37.09
2006-02-09 14:00:00,32.07